Guadalupe Pass, TX

1:15 PM MDT on April 30, 2017 (GMT -0600)
Guadalupe Pass

Weather History for KGDP - August, 2014

Change the Weather History Date:

Saturday, August 23, 2014

  Actual Average Record
Temperature  
Mean Temperature 76 °F -  
Max Temperature 90 °F 82 °F 98 °F (2010)
Min Temperature 63 °F 63 °F 60 °F (1996)
Cooling Degree Days 11    
Growing Degree Days 26 (Base 50)    
Moisture  
Dew Point 55 °F    
Average Humidity 56    
Maximum Humidity 87    
Minimum Humidity 27    
Precipitation  
Precipitation 0.00 in - - ()
Sea Level Pressure  
Sea Level Pressure 29.95 in    
Wind  
Wind Speed 13 mph (WSW)    
Max Wind Speed 25 mph    
Max Gust Speed 32 mph    
Visibility 10 miles    
Events      
Averages and records for this station are not official NWS values.
T = Trace of Precipitation, MM = Missing Value Source: NWS Daily Summary

Daily Weather History Graph

Daily Weather History Graph

Search for Another Location

Airport or City:

Trip Planner

Search our weather history database for the weather conditions in past years. The results will help you decide how hot, cold, wet, or windy it might be!

Date:

Astronomy

Aug. 23, 2014 Rise Set
Actual Time 6:29 AM MDT 7:33 PM MDT
Civil Twilight 6:03 AM MDT 7:59 PM MDT
Nautical Twilight 5:33 AM MDT 8:29 PM MDT
Astronomical Twilight 5:02 AM MDT 8:59 PM MDT
Moon 4:49 AM MDT (8/23) 6:19 PM MDT (8/23)
Length of Visible Light 13h 55m
Length of Day
13h 04m
Waning Crescent, 3% of the Moon is Illuminated
Aug 23
Waning Crescent
Aug 25
New
Sep 2
First Quarter
Sep 8
Full
Sep 15
Last Quarter

Hourly Weather History & Observations

Time (MDT) Temp. Heat Index Dew Point Humidity Pressure Visibility Wind Dir Wind Speed Gust Speed Precip Events Conditions
12:51 AM 66.9 °F - 57.9 °F 73% 29.95 in 10.0 mi SW 9.2 mph - N/A   Mostly Cloudy
1:51 AM 66.0 °F - 57.9 °F 75% 29.94 in 10.0 mi WSW 9.2 mph - N/A   Mostly Cloudy
2:51 AM 64.4 °F - 57.2 °F 77% 30.19 in 10.0 mi WSW 11.5 mph - N/A   Clear
3:42 AM 64.9 °F - 57.9 °F 78% 30.19 in 10.0 mi WSW 11.5 mph - N/A   Mostly Cloudy
3:51 AM 64.9 °F - 57.9 °F 78% 29.94 in 10.0 mi WSW 10.4 mph - N/A   Mostly Cloudy
4:04 AM 64.0 °F - 57.9 °F 80% 30.18 in 10.0 mi SW 6.9 mph - N/A   Scattered Clouds
4:51 AM 64.0 °F - 57.9 °F 80% 29.94 in 10.0 mi West 9.2 mph - N/A   Partly Cloudy
5:51 AM 63.0 °F - 59.0 °F 87% 29.94 in 10.0 mi WSW 11.5 mph - N/A   Clear
6:51 AM 63.0 °F - 59.0 °F 87% 29.97 in 9.0 mi WSW 13.8 mph - N/A   Partly Cloudy
7:51 AM 63.0 °F - 59.0 °F 87% 29.99 in 9.0 mi WSW 10.4 mph - N/A   Clear
8:51 AM 71.1 °F - 60.1 °F 68% 29.97 in 9.0 mi SW 13.8 mph - N/A   Clear
9:51 AM 71.1 °F - 59.0 °F 66% 29.99 in 10.0 mi SW 16.1 mph - N/A   Clear
10:51 AM 75.0 °F - 57.0 °F 53% 29.97 in 10.0 mi WSW 15.0 mph - N/A   Clear
11:51 AM 82.0 °F 81.3 °F 54.0 °F 38% 29.94 in 10.0 mi WSW 19.6 mph 24.2 mph N/A   Clear
12:51 PM 86.0 °F - 52.0 °F 31% 29.91 in 10.0 mi WSW 20.7 mph 24.2 mph N/A   Clear
1:51 PM 87.1 °F - 52.0 °F 30% 29.89 in 10.0 mi WSW 23.0 mph 28.8 mph N/A   Clear
2:51 PM 88.0 °F - 52.0 °F 29% 29.87 in 10.0 mi West 24.2 mph 32.2 mph N/A   Scattered Clouds
3:51 PM 89.1 °F - 51.1 °F 27% 29.84 in 10.0 mi WSW 25.3 mph 31.1 mph N/A   Scattered Clouds
4:51 PM 89.1 °F - 51.1 °F 27% 29.84 in 10.0 mi West 21.9 mph 27.6 mph N/A   Mostly Cloudy
5:51 PM 82.9 °F - 50.0 °F 32% 29.86 in 10.0 mi WSW 23.0 mph 28.8 mph N/A   Clear
6:51 PM 81.0 °F - 51.1 °F 35% 29.86 in 10.0 mi WSW 23.0 mph - N/A   Clear
7:51 PM 78.1 °F - 51.1 °F 39% 29.89 in 10.0 mi WSW 13.8 mph - N/A   Clear
8:51 PM 75.0 °F - 51.1 °F 43% 29.89 in 10.0 mi WSW 11.5 mph - N/A   Clear
9:51 PM 73.9 °F - 51.1 °F 45% 29.91 in 10.0 mi WSW 11.5 mph - N/A   Clear
10:51 PM 73.0 °F - 51.1 °F 46% 29.91 in 10.0 mi SW 11.5 mph - N/A   Clear
11:51 PM 71.1 °F - 52.0 °F 51% 29.88 in 10.0 mi WSW 9.2 mph - N/A   Clear